[[{"header":{"parameterUnit":"m.s-1","parameterCategory":1,"la1":30.2991,"la2":30.254,"lo1":-89.0895,"lo2":-89.0444,"dy":0.0017,"dx":0.0017,"nx":28,"ny":28,"refTime":"2025-12-27T09:00:00:Z","depth":0,"parameterNumber":2,"parameterNumberName":"U-component_of_WINDS"},"data":[0,0,0,0,0,0,0,0,0,0,0,0,0,0,0,0,0,0,0,0,0,0,0,0,0,0,0,0,0,0,0,0,0,0,0,0,0,0,0,0,0,0,0,0,0,0,0,0,0,0,0,0,0,0,0,0,0,0,2.3044,2.3045,0,2.3128,2.3129,2.313,2.3101,2.31,2.3098,2.3096,2.3185,2.3189,2.3193,0,0,0,0,0,0,0,0,0,0,0,0,0,2.2861,2.2864,2.3044,2.3045,2.3046,2.3128,2.3129,2.3131,2.3102,2.3099,2.3097,2.3095,2.3184,2.3188,2.3193,0,0,0,0,0,0,0,0,0,0,0,0,0,2.2943,2.2866,2.3044,2.3042,2.3042,2.3128,2.3129,2.3131,2.3102,2.3099,2.3097,2.3094,2.3182,2.3188,2.3194,2.3288,0,0,2.3213,2.3216,0,0,0,0,0,0,0,0,2.2938,2.2949,2.3041,2.3042,2.3043,2.3101,2.3097,2.3184,2.3103,2.308,2.3096,2.3093,2.316,2.3167,2.3189,2.3292,2.3296,2.3213,2.3217,2.322,2.3222,0,0,0,0,0,0,0,2.2932,2.2945,2.3077,2.3042,2.3043,2.3037,2.3046,2.3114,2.3134,2.3081,2.3079,2.309,2.316,2.3184,2.3191,2.3297,2.3213,2.3219,2.3223,2.3225,2.3482,2.3485,0,0,0,0,0,0,2.2926,2.2941,2.3075,2.308,2.2982,2.3043,2.3052,2.3085,2.3133,2.3138,2.3092,2.3088,2.3174,2.3184,2.3194,2.3308,2.322,2.3226,2.3229,2.3479,2.3483,2.3486,0,0,0,0,0,0,2.2922,2.2938,2.3071,2.301,2.3026,2.3049,2.3086,2.3089,2.3112,2.3141,2.3145,2.3112,2.3173,2.3186,2.3265,2.331,2.3228,2.3234,2.3475,2.348,2.3484,2.3535,0,0,0,0,0,0,2.2917,2.2937,2.2972,2.3011,2.303,2.314,2.3089,2.3092,2.3123,2.3119,2.3162,2.3166,2.3171,2.3256,2.3271,2.3317,2.3239,2.3471,2.3477,2.3483,2.353,2.3541,2.3551,0,0,0,0,0,2.291,2.2983,2.2974,2.299,2.3074,2.3142,2.3153,2.3157,2.3127,2.3163,2.3181,2.3165,2.3303,2.3264,2.3281,2.333,2.3468,2.3476,2.3483,2.3525,2.3539,2.3551,0,0,0,0,0,0,2.295,2.2988,2.2978,2.3066,2.3101,2.3137,2.3183,2.3172,2.3217,2.3211,2.3215,2.3225,2.3306,2.3326,2.3282,2.3424,2.3381,2.3392,2.3408,2.3421,2.3432,2.3425,2.3244,0,0,0,0,0,2.2968,2.302,2.3051,2.3125,2.3143,2.316,2.319,2.319,2.3227,2.3242,2.3266,2.3304,2.3355,2.3389,2.3439,2.3532,2.3542,2.3575,2.3585,2.3594,2.3603,2.3655,2.367,2.3509,2.3509,2.3509,0,0,2.3008,2.3035,2.3068,2.3134,2.3161,2.3215,2.3173,2.3232,2.3272,2.3251,2.3327,2.3347,2.3388,2.3475,2.3515,2.3494,2.3649,2.3603,2.3609,2.3614,2.3663,2.3679,2.3692,2.3514,2.3513,2.3512,0,0,2.3107,2.3133,2.3198,2.3226,2.3267,2.3278,2.3294,2.3332,2.3344,2.342,2.3406,2.3455,2.3544,2.3574,2.3601,2.3713,2.37,2.3729,2.3785,2.3835,2.3848,2.3859,2.3899,2.3914,2.3738,2.3739,2.3739,0,2.3151,2.3231,2.3233,2.3293,2.3323,2.3306,2.3372,2.34,2.3456,2.3477,2.3453,2.3565,2.3592,2.3686,2.3713,2.3736,2.3754,2.3724,2.3846,2.3857,2.3867,2.3906,2.3921,2.3742,2.3741,2.3741,2.3741,0,2.3283,2.3339,2.3387,2.344,2.3476,2.3539,2.3551,2.3587,2.3584,2.3598,2.3676,2.3708,2.3763,2.3786,2.3784,2.388,2.3866,2.3844,2.3801,2.3886,2.3922,2.3937,2.3747,2.3745,2.3744,2.3744,0,0,2.3409,2.3463,2.3481,2.3505,2.355,2.3594,2.3657,2.371,2.3741,2.3781,2.3834,2.391,2.389,2.3921,2.3922,2.3966,2.4053,2.3939,2.394,2.3959,2.4162,2.4178,2.4195,2.4045,2.4047,2.405,2.4158,0,2.3512,2.3621,2.3625,2.3725,2.3777,2.3762,2.3817,2.3851,2.3866,2.3913,2.3929,2.3983,2.3952,2.3971,2.4014,2.4033,2.4094,2.4026,2.4095,2.4097,2.4085,2.4214,2.4231,2.4332,2.4172,2.4175,2.4177,0,2.3647,2.369,2.3795,2.3833,2.3855,2.3904,2.3953,2.3998,2.4037,2.4045,2.408,2.4075,2.414,2.4095,2.4186,2.4139,2.4168,2.4182,2.4186,2.4192,2.4142,2.4224,2.4364,2.4379,2.4199,2.4197,2.4195,0,2.3728,2.3813,2.3886,2.3908,2.3954,2.3989,2.401,2.4046,2.4078,2.4122,2.4143,2.4194,2.4223,2.4263,2.4272,2.4239,2.4363,2.4319,2.4372,2.4372,2.4398,2.4396,2.4545,2.4417,2.4417,2.4416,2.4416,0,2.3843,2.3907,2.3923,2.3969,2.4041,2.4046,2.4118,2.4137,2.4169,2.4218,2.4209,2.4256,2.4266,2.4315,2.4323,2.4397,2.441,2.4418,2.442,2.4419,2.4418,2.4438,2.4431,2.4421,2.442,2.4419,2.4418,0,2.3945,2.3959,2.4038,2.4075,2.4086,2.4138,2.4171,2.4215,2.4229,2.4291,2.4306,2.4328,2.4386,2.4399,2.4468,2.4474,2.4561,2.4556,2.4548,2.4547,2.4599,2.4594,2.4766,2.4789,2.4646,2.4647,2.4648,0,2.4017,2.4067,2.411,2.4142,2.4164,2.4216,2.4249,2.4256,2.4291,2.4339,2.4377,2.4434,2.4479,2.4572,2.4594,2.4647,2.4643,2.4699,2.4651,2.4649,2.4644,2.4641,2.4646,2.4709,2.471,2.4711,2.4712,0,2.4144,2.4148,2.4195,2.4245,2.4285,2.4324,2.4362,2.439,2.4402,2.4442,2.45,2.4535,2.4605,2.4661,2.4714,2.4737,2.4727,2.4728,2.4743,2.4742,2.4736,2.474,2.4573,2.4723,2.4722,2.4722,2.4721,2.4721,2.4234,2.4277,2.4314,2.4367,2.4396,2.4432,2.4476,2.4495,2.4543,2.46,2.4602,2.4666,2.4704,2.4774,2.48,2.4851,2.4833,2.4855,2.4861,2.4866,2.487,2.4728,2.486,2.486,2.486,2.486,2.4859,0,2.4359,2.4382,2.4431,2.4485,2.4527,2.4514,2.4555,2.4592,2.4648,2.4684,2.4729,2.4796,2.4851,2.4878,2.4933,2.4968,2.4965,2.4982,2.4979,2.4985,2.4883,2.4864,2.4984,2.4984,2.4984,2.4984,2.4984,2.4983,2.443,2.4503,2.4512,2.4599,2.4622,2.4684,2.4709,2.4743,2.4772,2.4847,2.4893,2.491,2.4943,2.5,2.505,2.5056,2.5077,2.5096,2.5101,2.5005,2.4992,2.498,2.4963,2.5101,2.5101,2.5199,2.52,2.5201]},{"header":{"parameterUnit":"m.s-1","parameterCategory":1,"la1":30.2991,"la2":30.254,"lo1":-89.0895,"lo2":-89.0444,"dy":0.0017,"dx":0.0017,"nx":28,"ny":28,"refTime":"2025-12-27T09:00:00:Z","depth":0,"parameterNumber":3,"parameterNumberName":"V-component_of_WINDS"},"data":[0,0,0,0,0,0,0,0,0,0,0,0,0,0,0,0,0,0,0,0,0,0,0,0,0,0,0,0,0,0,0,0,0,0,0,0,0,0,0,0,0,0,0,0,0,0,0,0,0,0,0,0,0,0,0,0,0,0,2.2429,2.243,0,2.2522,2.2523,2.2524,2.2491,2.2489,2.2487,2.2485,2.2581,2.2586,2.259,0,0,0,0,0,0,0,0,0,0,0,0,0,2.2223,2.2227,2.2429,2.243,2.2431,2.2522,2.2523,2.2524,2.2491,2.2489,2.2486,2.2484,2.258,2.2585,2.259,0,0,0,0,0,0,0,0,0,0,0,0,0,2.2314,2.2228,2.2428,2.2425,2.2426,2.2521,2.2523,2.2525,2.2492,2.2489,2.2486,2.2483,2.2578,2.2585,2.2591,2.2695,0,0,2.2612,2.2615,0,0,0,0,0,0,0,0,2.2309,2.2321,2.2425,2.2426,2.2427,2.2492,2.2486,2.2582,2.2493,2.2467,2.2485,2.2481,2.2554,2.2563,2.2587,2.27,2.2704,2.2612,2.2617,2.2619,2.2621,0,0,0,0,0,0,0,2.2302,2.2317,2.2465,2.2426,2.2427,2.242,2.2429,2.2504,2.2527,2.2469,2.2467,2.2478,2.2554,2.258,2.2589,2.2705,2.2612,2.2618,2.2622,2.2625,2.291,2.2913,0,0,0,0,0,0,2.2295,2.2312,2.2462,2.2468,2.2359,2.2426,2.2437,2.2474,2.2526,2.2531,2.2481,2.2476,2.257,2.2581,2.2592,2.2719,2.2619,2.2626,2.263,2.2906,2.2911,2.2914,0,0,0,0,0,0,2.2291,2.2309,2.2459,2.239,2.2408,2.2433,2.2475,2.2477,2.2504,2.2535,2.2539,2.2504,2.2568,2.2583,2.267,2.2722,2.2629,2.2635,2.2902,2.2908,2.2913,2.2973,0,0,0,0,0,0,2.2285,2.2308,2.2348,2.2391,2.2412,2.2535,2.2478,2.2482,2.2516,2.2511,2.2557,2.2562,2.2567,2.266,2.2677,2.273,2.264,2.2898,2.2905,2.2911,2.2966,2.298,2.2991,0,0,0,0,0,2.2278,2.2361,2.235,2.2368,2.2462,2.2538,2.255,2.2554,2.252,2.256,2.258,2.2561,2.2713,2.267,2.2688,2.2743,2.2895,2.2903,2.291,2.2961,2.2977,2.299,0,0,0,0,0,0,2.2323,2.2366,2.2355,2.2453,2.2492,2.2533,2.2584,2.2571,2.2621,2.2614,2.2616,2.2627,2.2718,2.2739,2.269,2.2847,2.2799,2.2811,2.2831,2.2846,2.2858,2.2852,2.2646,0,0,0,0,0,2.2344,2.2402,2.2437,2.2521,2.2541,2.2559,2.2592,2.2592,2.2632,2.2649,2.2675,2.2716,2.2773,2.281,2.2864,2.2968,2.2979,2.3016,2.3028,2.3038,2.3049,2.3107,2.3124,2.294,2.294,2.294,0,0,2.2389,2.242,2.2456,2.2531,2.2561,2.2622,2.2573,2.2639,2.2685,2.2659,2.2744,2.2764,2.2809,2.2906,2.295,2.2927,2.3101,2.3048,2.3055,2.3061,2.3117,2.3134,2.315,2.2946,2.2945,2.2944,0,0,2.2502,2.2531,2.2605,2.2636,2.2682,2.2694,2.2711,2.2753,2.2766,2.2851,2.2834,2.2887,2.2985,2.3019,2.3048,2.3174,2.3159,2.3192,2.3256,2.3313,2.3327,2.334,2.3387,2.3404,2.3202,2.3202,2.3202,0,2.2553,2.2643,2.2644,2.2712,2.2746,2.2725,2.2801,2.2831,2.2892,2.2916,2.2889,2.3012,2.304,2.3146,2.3176,2.32,2.3222,2.3187,2.3325,2.3338,2.335,2.3395,2.3412,2.3206,2.3205,2.3205,2.3205,0,2.2704,2.2767,2.2821,2.2881,2.2921,2.2992,2.3004,2.3044,2.304,2.3054,2.3142,2.3175,2.3237,2.3261,2.3257,2.3366,2.335,2.3324,2.3275,2.3372,2.3414,2.3431,2.3211,2.321,2.3209,2.3208,0,0,2.285,2.2909,2.2929,2.2957,2.3006,2.3056,2.3126,2.3186,2.3221,2.3263,2.3324,2.3407,2.3383,2.3417,2.3416,2.3466,2.3566,2.3434,2.3435,2.3459,2.369,2.3711,2.3731,2.3555,2.3558,2.3561,2.3687,0,2.2968,2.3093,2.3096,2.3209,2.3269,2.3249,2.3311,2.3348,2.3363,2.3416,2.3432,2.3492,2.3455,2.3476,2.3523,2.3544,2.3613,2.3534,2.3612,2.3615,2.3604,2.3753,2.3775,2.3893,2.3703,2.3706,2.3708,0,2.3124,2.3173,2.3293,2.3335,2.3359,2.3415,2.347,2.352,2.3562,2.357,2.3608,2.36,2.3673,2.362,2.3721,2.3667,2.3699,2.3714,2.3718,2.3728,2.3669,2.3769,2.393,2.3949,2.3734,2.3731,2.373,0,2.3221,2.3316,2.3401,2.3425,2.3475,2.3515,2.3537,2.3576,2.3612,2.366,2.3684,2.374,2.3771,2.3815,2.3823,2.3783,2.3924,2.3872,2.3934,2.3934,2.3967,2.3965,2.4139,2.3983,2.3983,2.3983,2.3982,0,2.3356,2.343,2.3445,2.3498,2.3581,2.3583,2.3666,2.3685,2.372,2.3776,2.3762,2.3815,2.3821,2.3876,2.3882,2.3966,2.3979,2.3988,2.399,2.3991,2.3991,2.4014,2.4007,2.3987,2.3986,2.3985,2.3984,0,2.3479,2.3492,2.3583,2.3623,2.3635,2.3695,2.3729,2.378,2.3793,2.3864,2.3881,2.3902,2.3966,2.3978,2.4053,2.4057,2.4158,2.4149,2.4144,2.4144,2.4206,2.4201,2.4403,2.4431,2.4255,2.4256,2.4258,0,2.3565,2.3622,2.3668,2.3705,2.373,2.3789,2.3826,2.383,2.3869,2.3921,2.3966,2.4028,2.4078,2.4181,2.4204,2.4261,2.4256,2.4323,2.4265,2.4265,2.426,2.4258,2.4264,2.4335,2.4337,2.4338,2.4339,0,2.3717,2.3721,2.3774,2.3831,2.3875,2.3919,2.3961,2.3992,2.4002,2.4047,2.4112,2.4151,2.4228,2.4291,2.4348,2.4372,2.4359,2.4357,2.4375,2.4379,2.4374,2.438,2.4177,2.4353,2.4352,2.4351,2.435,2.4349,2.3826,2.3877,2.3917,2.3978,2.401,2.405,2.41,2.4119,2.4174,2.4237,2.4236,2.4308,2.4348,2.4424,2.4452,2.4508,2.4487,2.4513,2.452,2.4526,2.4534,2.4363,2.4518,2.4518,2.4518,2.4517,2.4517,0,2.3979,2.4004,2.406,2.412,2.4168,2.4149,2.4195,2.4237,2.43,2.4339,2.4389,2.4465,2.4526,2.4553,2.4613,2.4653,2.4648,2.4669,2.4667,2.4673,2.4548,2.4528,2.4672,2.4672,2.4672,2.4672,2.4672,2.4672,2.4065,2.415,2.4159,2.426,2.4284,2.4355,2.4383,2.442,2.4451,2.4537,2.4587,2.4604,2.4639,2.4701,2.4756,2.4763,2.4787,2.4811,2.4814,2.4697,2.4682,2.4667,2.4648,2.4815,2.4815,2.4935,2.4936,2.4937]}]]